Location: Starhoo Observatory
(41.8578°N, 70.9669°W)
Time: 20:12:37
(UTC-05:00)

ISS - Visible Passes

Search period start: 23 January 2017 00:00
Search period end: 02 February 2017 00:00
Orbit: 399 x 410 km, 51.6° (Epoch: 24 January)

Date Brightness Start Highest point End Pass type
(mag) Time Alt. Az. Time Alt. Az. Time Alt. Az.
26 Jan -0.8 18:10:18 10° SE 18:10:30 10° SE 18:10:30 10° SE visible
27 Jan -1.6 18:51:49 10° SW 18:53:34 27° SSW 18:53:34 27° SSW visible
28 Jan -2.0 18:00:04 10° SSW 18:02:50 25° SE 18:03:50 21° ESE visible
28 Jan 0.0 19:36:04 10° W 19:36:31 13° W 19:36:31 13° W visible
29 Jan -3.1 18:43:35 10° WSW 18:46:42 69° NW 18:46:42 69° NW visible
30 Jan -3.2 17:51:20 10° SW 17:54:33 62° SE 17:56:47 18° ENE visible
30 Jan -0.3 19:28:30 10° WNW 19:29:28 16° WNW 19:29:28 16° WNW visible
31 Jan -2.1 18:35:45 10° W 18:38:47 34° NNW 18:39:28 31° N visible
01 Feb -2.9 17:43:09 10° WSW 17:46:23 57° NNW 17:49:24 11° NE visible
01 Feb -0.4 19:21:04 10° WNW 19:22:04 14° NW 19:22:04 14° NW visible
